![]() |
EMODnet Physics ERDDAP
Easier access to scientific data |
log in|
Brought to you by EMODnet Physics |
| Dataset Title: | NDBC - Collection of dew point temperature (DEWT) TimeSeries - IN SITU MultiPointTimeSeriesObservation
|
| Institution: | NDBC (Dataset ID: TS_DEWT_NDBC) |
| Information: | Summary
| License
| FGDC
| ISO 19115
| Metadata
| Background
| Subset
| Data Access Form
| Make a graph
|
| Name | Last modified | Size | Description | |
|---|---|---|---|---|
| Parent Directory | - | - | ||
| 52211_TS_DEWT_012013.nc | 13-Oct-2024 16:35 | 428990 | ||
| 52211_TS_DEWT_012014.nc | 13-Oct-2024 17:36 | 429391 | ||
| 52211_TS_DEWT_012016.nc | 13-Oct-2024 18:58 | 429562 | ||
| 52211_TS_DEWT_012020.nc | 13-Oct-2024 20:41 | 1475881 | ||
| 52211_TS_DEWT_012021.nc | 13-Oct-2024 21:45 | 1477029 | ||
| 52211_TS_DEWT_012023.nc | 13-Oct-2024 22:48 | 1476753 | ||
| 52211_TS_DEWT_012024.nc | 13-Oct-2024 23:12 | 1476676 | ||
| 52211_TS_DEWT_022013.nc | 13-Oct-2024 16:39 | 1467450 | ||
| 52211_TS_DEWT_022014.nc | 13-Oct-2024 17:40 | 1476768 | ||
| 52211_TS_DEWT_022016.nc | 13-Oct-2024 19:04 | 1476201 | ||
| 52211_TS_DEWT_022020.nc | 13-Oct-2024 20:46 | 1476882 | ||
| 52211_TS_DEWT_022021.nc | 13-Oct-2024 21:50 | 1473462 | ||
| 52211_TS_DEWT_032013.nc | 13-Oct-2024 16:44 | 1474490 | ||
| 52211_TS_DEWT_032014.nc | 13-Oct-2024 17:45 | 427884 | ||
| 52211_TS_DEWT_032016.nc | 13-Oct-2024 19:10 | 429620 | ||
| 52211_TS_DEWT_032020.nc | 13-Oct-2024 20:52 | 429906 | ||
| 52211_TS_DEWT_032021.nc | 13-Oct-2024 21:54 | 429907 | ||
| 52211_TS_DEWT_042013.nc | 13-Oct-2024 16:48 | 429876 | ||
| 52211_TS_DEWT_042014.nc | 13-Oct-2024 17:49 | 429857 | ||
| 52211_TS_DEWT_042016.nc | 13-Oct-2024 19:15 | 429892 | ||
| 52211_TS_DEWT_042020.nc | 13-Oct-2024 20:57 | 1626070 | ||
| 52211_TS_DEWT_042021.nc | 13-Oct-2024 21:58 | 1626820 | ||
| 52211_TS_DEWT_052013.nc | 13-Oct-2024 16:54 | 1624774 | ||
| 52211_TS_DEWT_052014.nc | 13-Oct-2024 17:53 | 1624998 | ||
| 52211_TS_DEWT_052016.nc | 13-Oct-2024 19:19 | 1625662 | ||
| 52211_TS_DEWT_052018.nc | 13-Oct-2024 19:39 | 1625541 | ||
| 52211_TS_DEWT_052019.nc | 13-Oct-2024 20:04 | 1625759 | ||
| 52211_TS_DEWT_052020.nc | 13-Oct-2024 21:01 | 1624935 | ||
| 52211_TS_DEWT_052021.nc | 13-Oct-2024 22:03 | 1626534 | ||
| 52211_TS_DEWT_052022.nc | 13-Oct-2024 22:11 | 1626949 | ||
| 52211_TS_DEWT_062013.nc | 13-Oct-2024 16:59 | 1470787 | ||
| 52211_TS_DEWT_062014.nc | 13-Oct-2024 17:57 | 425999 | ||
| 52211_TS_DEWT_062016.nc | 13-Oct-2024 19:24 | 422396 | ||
| 52211_TS_DEWT_062018.nc | 13-Oct-2024 19:43 | 429889 | ||
| 52211_TS_DEWT_062019.nc | 13-Oct-2024 20:08 | 429910 | ||
| 52211_TS_DEWT_062020.nc | 13-Oct-2024 21:07 | 427416 | ||
| 52211_TS_DEWT_062021.nc | 13-Oct-2024 22:07 | 429909 | ||
| 52211_TS_DEWT_062022.nc | 13-Oct-2024 22:16 | 429906 | ||
| 52211_TS_DEWT_072013.nc | 13-Oct-2024 17:06 | 1475967 | ||
| 52211_TS_DEWT_072014.nc | 13-Oct-2024 18:02 | 1625782 | ||
| 52211_TS_DEWT_072015.nc | 13-Oct-2024 18:24 | 1477337 | ||
| 52211_TS_DEWT_072016.nc | 13-Oct-2024 19:29 | 1475589 | ||
| 52211_TS_DEWT_072018.nc | 13-Oct-2024 19:47 | 1625762 | ||
| 52211_TS_DEWT_072019.nc | 13-Oct-2024 20:12 | 1472664 | ||
| 52211_TS_DEWT_072020.nc | 13-Oct-2024 21:12 | 1625323 | ||
| 52211_TS_DEWT_072022.nc | 13-Oct-2024 22:20 | 1624516 | ||
| 52211_TS_DEWT_082013.nc | 13-Oct-2024 17:11 | 1626178 | ||
| 52211_TS_DEWT_082014.nc | 13-Oct-2024 18:06 | 1626957 | ||
| 52211_TS_DEWT_082015.nc | 13-Oct-2024 18:30 | 1624884 | ||
| 52211_TS_DEWT_082016.nc | 13-Oct-2024 19:34 | 424879 | ||
| 52211_TS_DEWT_082018.nc | 13-Oct-2024 19:51 | 429350 | ||
| 52211_TS_DEWT_082019.nc | 13-Oct-2024 20:17 | 429520 | ||
| 52211_TS_DEWT_082020.nc | 13-Oct-2024 21:16 | 428877 | ||
| 52211_TS_DEWT_092013.nc | 13-Oct-2024 17:16 | 429565 | ||
| 52211_TS_DEWT_092014.nc | 13-Oct-2024 18:11 | 1477075 | ||
| 52211_TS_DEWT_092015.nc | 13-Oct-2024 18:36 | 1474421 | ||
| 52211_TS_DEWT_092018.nc | 13-Oct-2024 19:55 | 1477083 | ||
| 52211_TS_DEWT_092019.nc | 13-Oct-2024 20:20 | 1476666 | ||
| 52211_TS_DEWT_092020.nc | 13-Oct-2024 21:21 | 1476941 | ||
| 52211_TS_DEWT_092022.nc | 13-Oct-2024 22:30 | 1476442 | ||
| 52211_TS_DEWT_102012.nc | 13-Oct-2024 16:19 | 1476316 | ||
| 52211_TS_DEWT_102013.nc | 13-Oct-2024 17:21 | 1476443 | ||
| 52211_TS_DEWT_102014.nc | 13-Oct-2024 18:15 | 1476866 | ||
| 52211_TS_DEWT_102015.nc | 13-Oct-2024 18:41 | 1477079 | ||
| 52211_TS_DEWT_102018.nc | 13-Oct-2024 20:00 | 1476903 | ||
| 52211_TS_DEWT_102019.nc | 13-Oct-2024 20:24 | 428649 | ||
| 52211_TS_DEWT_102020.nc | 13-Oct-2024 21:27 | 429596 | ||
| 52211_TS_DEWT_102022.nc | 13-Oct-2024 22:35 | 429828 | ||
| 52211_TS_DEWT_102023.nc | 13-Oct-2024 22:58 | 429739 | ||
| 52211_TS_DEWT_112012.nc | 13-Oct-2024 16:24 | 429586 | ||
| 52211_TS_DEWT_112013.nc | 13-Oct-2024 17:26 | 427881 | ||
| 52211_TS_DEWT_112014.nc | 13-Oct-2024 18:19 | 1626926 | ||
| 52211_TS_DEWT_112015.nc | 13-Oct-2024 18:47 | 1625980 | ||
| 52211_TS_DEWT_112019.nc | 13-Oct-2024 20:29 | 1626183 | ||
| 52211_TS_DEWT_112020.nc | 13-Oct-2024 21:32 | 1626520 | ||
| 52211_TS_DEWT_112022.nc | 13-Oct-2024 22:39 | 1626707 | ||
| 52211_TS_DEWT_112023.nc | 13-Oct-2024 23:03 | 1626532 | ||
| 52211_TS_DEWT_122012.nc | 13-Oct-2024 16:30 | 1626015 | ||
| 52211_TS_DEWT_122013.nc | 13-Oct-2024 17:31 | 1625211 | ||
| 52211_TS_DEWT_122015.nc | 13-Oct-2024 18:53 | 1626649 | ||
| 52211_TS_DEWT_122019.nc | 13-Oct-2024 20:34 | 1626568 | ||
| 52211_TS_DEWT_122020.nc | 13-Oct-2024 21:39 | 1626112 | ||
| 52211_TS_DEWT_122022.nc | 13-Oct-2024 22:44 | 428189 | ||
| 52211_TS_DEWT_122023.nc | 13-Oct-2024 23:08 | 419315 | ||